Starlink 30086

operational
NORAD ID: 56297 Int'l Des: 2023-056 Owner: SPXS Country: US Constellation: starlink
LEOCIRCULAR

关于 Starlink 30086

正在加载描述...

实时位置

正在加载3D地球...

即将过境

高度历史

Altitude vs Time

uPlot chart will show altitude changes over time

两行轨道根数

1 56297U 23056M 25304.73087352 -.00001626 00000-0 -10532-3 0 9995
2 56297 43.0002 191.0577 0001264 284.1479 75.9223 15.02534537140624
Epoch: Oct 31, 2025 • Age: 19 hours

当前状态

高度 562.2 km
速度 7.59 km/s
星下点 39.63°N, 12.74°E
发射日期 Apr 19, 2023
运行时间 2.5 years
类型 internet

技术详情

分类 Payload
质量 730.00 kg
干质量 700.00 kg
总质量 730.00 kg
长度 0.30 m
直径 4.10 m
跨度 29.00 m
形状 Box + pan
制造商 SPXS
平台类型 Starlink V2M
阶段状态 In Orbit
所有者/国家 SPXS/US

大型星座

Loading constellations...